Weather History for Palm Springs, CA

Change the Weather History Date:

Saturday, December 8, 2012

  Actual Average Record
Temperature  
Mean Temperature 63 °F 56 °F  
Max Temperature 77 °F 68 °F 89 °F (1938)
Min Temperature 48 °F 45 °F 29 °F (1978)
Degree Days  
Heating Degree Days 2 9  
Month to date heating degree days 2 65  
Since 1 July heating degree days 37 161  
Cooling Degree Days 0 0  
Month to date cooling degree days 21 0  
Year to date cooling degree days 4726 4137  
Growing Degree Days 14 (Base 50)    
Moisture  
Dew Point 28 °F    
Average Humidity 30    
Maximum Humidity 50    
Minimum Humidity 10    
Precipitation  
Precipitation 0.00 in 0.03 in 0.24 in (1992)
Month to date precipitation 0.00 0.14  
Year to date precipitation 1.82 5.00  
Since 1 July precipitation 1.03 2.06  
Snow  
Snow 0.00 in - - ()
Month to date snowfall 0.0  
Year to date snowfall 0.0  
Since 1 July snowfall 0.0  
Snow Depth 0.00 in    
Sea Level Pressure  
Sea Level Pressure 29.91 in    
Wind  
Wind Speed 4 mph (NNW)    
Max Wind Speed 14 mph    
Max Gust Speed 16 mph    
Visibility 10 miles    
Events      
T = Trace of Precipitation, MM = Missing Value Source: NWS Daily Summary

Daily Weather History Graph

Daily Weather History Graph

Search for Another Location

Airport:

Trip Planner

Search our weather history database for the weather conditions in past years. The results will help you decide how hot, cold, wet, or windy it might be!

Date:

Astronomy

Dec. 08, 2012 Rise Set
Actual Time 6:39 AM PST 4:37 PM PST
Civil Twilight 6:11 AM PST 5:04 PM PST
Nautical Twilight 5:40 AM PST 5:35 PM PST
Astronomical Twilight 5:10 AM PST 6:06 PM PST
Moon 1:20 AM PST (12/8) 12:59 PM PST (12/8)
Length of Visible Light 10h 53m
Length of Day
9h 58m
Waning Crescent, 27% of the Moon is Illuminated
Dec 8
Waning Crescent
Dec 13
New
Dec 19
First Quarter
Dec 28
Full
Jan 4
Last Quarter

Hourly Weather History & Observations

Time (PST) Temp. Dew Point Humidity Pressure Visibility Wind Dir Wind Speed Gust Speed Precip Events Conditions
12:53 AM 54.0 °F 34.0 °F 47% 29.91 in 10.0 mi Calm Calm - N/A   Clear
1:53 AM 60.1 °F 32.0 °F 35% 29.91 in 10.0 mi NW 8.1 mph - N/A   Clear
2:53 AM 55.9 °F 32.0 °F 40% 29.91 in 10.0 mi NNW 9.2 mph - N/A   Clear
3:53 AM 55.9 °F 30.9 °F 39% 29.90 in 10.0 mi NNW 12.7 mph - N/A   Clear
4:53 AM 55.9 °F 30.0 °F 37% 29.90 in 10.0 mi NW 6.9 mph - N/A   Clear
5:53 AM 53.1 °F 30.0 °F 41% 29.92 in 10.0 mi NNW 4.6 mph - N/A   Clear
6:53 AM 53.1 °F 30.9 °F 43% 29.93 in 10.0 mi Calm Calm - N/A   Clear
7:53 AM 54.0 °F 36.0 °F 51% 29.94 in 10.0 mi West 3.5 mph - N/A   Clear
8:53 AM 62.1 °F 33.1 °F 34% 29.95 in 10.0 mi Calm Calm - N/A   Partly Cloudy
9:53 AM 68.0 °F 28.0 °F 22% 29.96 in 10.0 mi Calm Calm - N/A   Partly Cloudy
10:53 AM 72.0 °F 21.9 °F 15% 29.93 in 10.0 mi East 3.5 mph - N/A   Partly Cloudy
11:53 AM 75.0 °F 19.9 °F 13% 29.90 in 10.0 mi Calm Calm - N/A   Scattered Clouds
12:53 PM 75.9 °F 19.0 °F 12% 29.88 in 10.0 mi ESE 3.5 mph - N/A   Clear
1:53 PM 75.9 °F 16.0 °F 10% 29.85 in 10.0 mi Calm Calm - N/A   Partly Cloudy
3:53 PM 75.0 °F 21.0 °F 13% 29.85 in 10.0 mi ESE 4.6 mph - N/A   Clear
4:53 PM 72.0 °F 25.0 °F 17% 29.85 in 10.0 mi Calm Calm - N/A   Clear
5:53 PM 64.9 °F 33.1 °F 31% 29.87 in 10.0 mi Calm Calm - N/A   Clear
6:53 PM 62.1 °F 27.0 °F 26% 29.89 in 10.0 mi Calm Calm - N/A   Clear
7:53 PM 60.1 °F 19.0 °F 20% 29.90 in 10.0 mi NNW 4.6 mph - N/A   Clear
8:53 PM 57.9 °F 27.0 °F 31% 29.92 in 10.0 mi NNW 3.5 mph - N/A   Clear
9:53 PM 55.9 °F 33.1 °F 42% 29.92 in 10.0 mi North 3.5 mph - N/A   Clear
10:53 PM 57.0 °F 32.0 °F 39% 29.93 in 10.0 mi NW 4.6 mph - N/A   Clear
11:53 PM 55.9 °F 26.1 °F 32% 29.92 in 10.0 mi NNW 8.1 mph - N/A   Clear